Regional Weather Roundup
Issued by NWS Sterling, VA

Home | Current Version | Previous Version | Graphics & Text | Print | Product List | Glossary On
Versions: 1 2 3 4 5 6 7 8 9 10 11 12 13 14 15 16 17 18 19 20 21 22 23 24 25 26
000
ASUS41 KLWX 261410
RWRLWX

REGIONAL WEATHER ROUNDUP
NATIONAL WEATHER SERVICE BALTIMORE MD/WASHINGTON DC
1000 AM EDT THU MAY 26 2016

Note: "FAIR" indicates few or no clouds below 12,000 feet
with no significant weather and/or obstructions to visibility.
 TC=TEMPERATURE CELSIUS

 * =Non NWS site. Station does not report precipitation (e.g. rain,
    snow, etc.), thunder, or fog.

DCZ001-MDZ009-015-VAZ040>042-051-053>054-261500-
WASHINGTON METRO

CITY           SKY/WX    TMP DP  RH WIND       PRES   REMARKS
WASHINGTON NAT CLOUDY    73  62  68 S9        30.12F
DULLES         FAIR      75  60  59 VRB3      30.12F
ANDREWS AFB    MOSUNNY   78  61  55 S7        30.11F
FT BELVOIR     FAIR      76  62  61 VRB3      30.11F
QUANTICO       FAIR      72  63  73 S6        30.12F
COLLEGE PARK*  FAIR      75  57  53 S3        30.11S
LEESBURG*      FAIR      77  64  65 CALM      30.13F
MANASSAS*      SUNNY     75  63  64 S5        30.12F

$$

MDZ006>007-011-014-261500-
BALTIMORE METRO

CITY           SKY/WX    TMP DP  RH WIND       PRES   REMARKS
BWI AIRPORT    PTSUNNY   78  58  49 SE3       30.10F
MD SCIENCE CTR   N/A     75  59  57 MISG      30.11F
MARTIN STATE   MOSUNNY   75  66  73 SE3       30.13F
ANNAPOLIS      MOSUNNY   69  64  84 SE10      30.11F
FORT MEADE*    MOSUNNY   75  61  60 CALM      30.13F

$$

MDZ012-015-019>023-261500-
MARYLAND EASTERN SHORE

CITY           SKY/WX    TMP DP  RH WIND       PRES   REMARKS
OCEAN CITY     MOSUNNY   76  67  73 S5        30.14F
SALISBURY      SUNNY     80  64  58 S6        30.13F
BAY BRIDGE AP* MOSUNNY   77  61  57 SE8       30.12F
CAMBRIDGE*     SUNNY     79  63  57 SW6       30.12F
EASTON*        MOSUNNY   81  66  61 SW5       30.16F

$$

MDZ017>025-261500-
SOUTHERN MARYLAND

CITY           SKY/WX    TMP DP  RH WIND       PRES   REMARKS
PATUXENT RIVER CLOUDY    78  62  57 E6        30.12F
ST INIGOES     SUNNY     77  62  59 S5        30.12F
LEONARDTOWN*   SUNNY     79  59  50 S5        30.14F

$$

MDZ003>005-261500-
NORTH CENTRAL MARYLAND

CITY           SKY/WX    TMP DP  RH WIND       PRES   REMARKS
FREDERICK*     SUNNY     75  64  69 SW5       30.14F
HAGERSTOWN APT MOSUNNY   74  57  55 S6        30.11F
WESTMINSTER*   SUNNY     81  77  89 CALM      30.12F

$$

MDZ501>502-261500-
WESTERN MARYLAND

CITY           SKY/WX    TMP DP  RH WIND       PRES   REMARKS
OAKLAND*       PTSUNNY   64  55  72 SW7       30.21F
CUMBERLAND*    MOSUNNY   66  59  77 CALM      30.17F

$$

VAZ025>031-261500-
SHENANDOAH VALLEY

CITY           SKY/WX    TMP DP  RH WIND       PRES   REMARKS
WINCHESTER*    FAIR      77  61  57 S7        30.12F
FRONT ROYAL*   FAIR      72  61  68 S6        30.12F
LURAY*         FAIR      72  63  73 S3        30.14F
NEW MARKET*    CLOUDY    69  62  79 CALM      30.13F
STAUNTON*      CLOUDY    69  62  76 CALM      30.18F
WAYNESBORO*    CLOUDY    74  62  64 W7        30.18F

$$

WVZ021-048>050-054>055-261500-
EASTERN WEST VIRGINIA PANHANDLE

CITY           SKY/WX    TMP DP  RH WIND       PRES   REMARKS
MARTINSBURG    FAIR      73  60  63 CALM      30.11F
PETERSBURG*    FAIR      69  61  77 CALM      30.15F

$$

VAZ036>039-050-261500-
CENTRAL FOOTHILLS

CITY           SKY/WX    TMP DP  RH WIND       PRES   REMARKS
CHARLOTTESVILL FAIR      79  62  56 SW6       30.13F
CULPEPER*      PTSUNNY   76  64  66 CALM      30.12F
ORANGE*        FAIR      79  63  57 SW3       30.14S
GORDONSVILLE*  FAIR      78  64  60 SW6       30.11F
WARRENTON*     FAIR      77  58  51 CALM      30.11F

$$

VAZ055>057-261500-
NORTH AND CENTRAL PIEDMONT

CITY           SKY/WX    TMP DP  RH WIND       PRES   REMARKS
FREDERICKSBRG* NOT AVBL
STAFFORD*      FAIR      76  61  59 S3        30.15F

$$

NCZ024-NYZ072-PAZ021-071-VAZ022-071-261500-
OTHER REGIONAL OBSERVATIONS

CITY           SKY/WX    TMP DP  RH WIND       PRES   REMARKS
NEW YORK CITY  SUNNY     78  51  38 W3        30.13F
PHILADELPHIA   PTSUNNY   76  58  53 SW6       30.12F
PITTSBURGH     CLOUDY    71  60  68 SW8       30.10F
ROANOKE        PTSUNNY   68  64  87 NE6       30.20F
RICHMOND       PTSUNNY   76  63  64 SW8       30.14F
RALEIGH        MOSUNNY   77  64  64 SW6       30.19F

$$

ANZ530>537-261500-
MARINE OBSERVATIONS

STATION/POSITION TIME  TEMP    WIND        PRES
                       AIR SEA DIR/SP/G
                 (UTC) (F)     (DEG/KT/KT) (MB)
THOMAS PT LIGHT  1400   68 64  150/  8/  8 1020.8F
BALT KEY BRIDGE  1300   68     110/  5/  5 1020.1F
COVE POINT       1300   73     180/  5/  6 1021.0F
LEWISETTA        1300   72 69  220/  5/  6 1020.3F
SOLOMONS ISLAND  1300   76 64   CALM  /  2   N/A
PINEY POINT      1300          120/  6/  7   N/A

$$





USA.gov is the U.S. government's official web portal to all federal, state and local government web resources and services.